Regional Weather Roundup
Issued by NWS

Home | Current Version | Previous Version | Text Only | Print | Product List | Glossary Off
Versions: 1 2 3 4 5 6 7 8 9 10 11 12 13 14 15 16 17 18 19 20 21 22 23 24 25 26 27 28 29 30 31 32 33 34 35 36 37 38 39 40 41 42 43 44 45 46 47 48 49 50

000
ASUS43 KFSD 280910
RWRSD

WEATHER ROUNDUP FOR SOUTH DAKOTA
NATIONAL WEATHER SERVICE SIOUX FALLS SD
400 AM CDT SAT MAY 28 2016

NOTE: "FAIR" INDICATES FEW OR NO CLOUDS BELOW 12,000 FEET WITH NO
SIGNIFICANT WEATHER AND/OR OBSTRUCTIONS TO VISIBILITY.


SDZ001>005-009-010-012>017-281000-
NORTHWEST AND NORTH CENTRAL SOUTH DAKOTA

CITY           SKY/WX    TMP DP  RH WIND       PRES   REMARKS
BUFFALO          N/A     49  44  83 W3        29.81R
FAITH            N/A     49  46  90 NW6       29.85R
MOBRIDGE       CLOUDY    55  51  86 NW6       29.79S
$$

SDZ012>016-024>037-041>051-057-063-072>074-281000-
SOUTHWEST AND SOUTH CENTRAL SOUTH DAKOTA

CITY           SKY/WX    TMP DP  RH WIND       PRES   REMARKS
RAPID CTY ARPT CLEAR     45  43  93 NW8       29.87R
PIERRE         CLOUDY    58  53  84 NW8       29.78F
CUSTER         CLEAR     41  37  86 NW7       29.94R
ELLSWORTH AFB  CLEAR     46  44  92 NW7       29.87R
PHILIP         MOCLDY    48  47  96 W5        29.84R
PINE RIDGE     MOCLDY    38  36  92 E3        29.88R FOG
WINNER         CLOUDY    58  55  90 CALM      29.79F
$$

SDZ004>011-016>023-039-040-281000-
NORTHEAST SOUTH DAKOTA

CITY           SKY/WX    TMP DP  RH WIND       PRES   REMARKS
ABERDEEN       MOCLDY    60  57  89 N6        29.79S
WATERTOWN      CLOUDY    60  59  96 N7        29.77S FOG
BROOKINGS      CLOUDY    59  58  96 NE6       29.73F
SISSETON         N/A     58  56  93 CALM      29.77S
$$

SDZ017-020-022-023-036>040-048>070-281000-
SOUTHEAST SOUTH DAKOTA

CITY           SKY/WX    TMP DP  RH WIND       PRES   REMARKS
SIOUX FALLS    LGT RAIN  62  59  90 N5        29.71F
HURON          CLOUDY    59  57  93 N10       29.75S
CHAMBERLAIN    CLOUDY    59  58  97 NW5       29.77F
MITCHELL       CLOUDY    61  58  90 N6        29.73F
YANKTON        CLOUDY    59  55  88 N8        29.71R
$$

ABBREVIATIONS USED IN REMARKS
   TC - TEMPERATURE IN CELSIUS
  WCI - WIND CHILL INDEX
   HX - HEAT INDEX
  VSB - VISIBILITY




USA.gov is the U.S. government's official web portal to all federal, state and local government web resources and services.